When you browse on this site, cookies collect data to enhance your experience and personalize the content and advertising you see.
Visit our Privacy Policy to learn more. By continuing to use the site, you agree to this use of cookies and data.
  • In Romania
  • List of Countries
  • For 7 days
  • Water Temperature
  • Weather Map
  • Weather Widgets
  • user-avatar
    Login

    Hourly Weather Vyglyadovka

    Today, 16 September, Monday

    Time Temperature Precipitation Wind Pressure Humidity
    00:00 +10°C° 0.3 mm 7 mps 741 mmHg 82%
    01:00 +10°C° 0.3 mm 7 mps 741 mmHg 81%
    02:00 +10°C° 0.3 mm 7 mps 740 mmHg 81%
    03:00 +10°C° 0 mm 6 mps 739 mmHg 79%
    04:00 +10°C° 0.2 mm 6 mps 739 mmHg 80%
    05:00 +10°C° 0.2 mm 7 mps 738 mmHg 81%
    06:00 +10°C° 0.2 mm 8 mps 738 mmHg 81%
    07:00 +10°C° 0.2 mm 8 mps 737 mmHg 81%
    08:00 +10°C° 0.2 mm 8 mps 737 mmHg 81%
    09:00 +10°C° 0.2 mm 8 mps 736 mmHg 81%
    10:00 +11°C° 0.1 mm 8 mps 736 mmHg 80%
    11:00 +11°C° 0.1 mm 8 mps 736 mmHg 79%
    12:00 +12°C° 0.1 mm 8 mps 736 mmHg 78%
    13:00 +12°C° 0.3 mm 8 mps 735 mmHg 79%
    14:00 +11°C° 0.3 mm 8 mps 735 mmHg 80%
    15:00 +11°C° 0.3 mm 7 mps 735 mmHg 81%
    16:00 +11°C° 0 mm 7 mps 735 mmHg 78%
    17:00 +11°C° 0 mm 6 mps 735 mmHg 74%
    18:00 +13°C° 0 mm 5 mps 736 mmHg 71%
    19:00 +12°C° 0 mm 5 mps 736 mmHg 73%
    20:00 +10°C° 0 mm 5 mps 736 mmHg 74%
    21:00 +10°C° 0 mm 5 mps 736 mmHg 76%
    22:00 +9°C° 0 mm 6 mps 735 mmHg 78%
    23:00 +9°C° 0 mm 6 mps 735 mmHg 79%

    Tomorrow, 17 September, Tuesday

    Time Temperature Precipitation Wind Pressure Humidity
    00:00 +9°C° 0 mm 6 mps 735 mmHg 80%
    01:00 +9°C° 0 mm 6 mps 735 mmHg 82%
    02:00 +8°C° 0 mm 6 mps 735 mmHg 83%
    03:00 +8°C° 0 mm 6 mps 735 mmHg 84%
    04:00 +8°C° 0 mm 6 mps 735 mmHg 83%
    05:00 +8°C° 0 mm 6 mps 735 mmHg 83%
    06:00 +8°C° 0 mm 6 mps 734 mmHg 83%
    07:00 +9°C° 0 mm 7 mps 734 mmHg 78%
    08:00 +9°C° 0 mm 7 mps 735 mmHg 73%
    09:00 +10°C° 0 mm 8 mps 735 mmHg 68%
    10:00 +11°C° 0.1 mm 8 mps 735 mmHg 63%
    11:00 +12°C° 0.1 mm 8 mps 735 mmHg 59%
    12:00 +12°C° 0.1 mm 8 mps 735 mmHg 54%
    13:00 +13°C° 0.1 mm 8 mps 735 mmHg 53%
    14:00 +13°C° 0.1 mm 8 mps 735 mmHg 51%
    15:00 +13°C° 0.1 mm 8 mps 735 mmHg 50%
    16:00 +13°C° 0 mm 6 mps 735 mmHg 54%
    17:00 +12°C° 0 mm 5 mps 734 mmHg 58%
    18:00 +12°C° 0 mm 4 mps 734 mmHg 62%
    19:00 +11°C° 0 mm 4 mps 735 mmHg 65%
    20:00 +10°C° 0 mm 4 mps 735 mmHg 68%
    21:00 +8°C° 0 mm 4 mps 735 mmHg 71%
    22:00 +8°C° 0 mm 4 mps 735 mmHg 73%
    23:00 +7°C° 0 mm 4 mps 735 mmHg 75%

    Day after tomorrow, 18 September, Wednesday

    Time Temperature Precipitation Wind Pressure Humidity
    00:00 +7°C° 0 mm 4 mps 735 mmHg 77%
    01:00 +7°C° 0 mm 4 mps 734 mmHg 79%
    02:00 +7°C° 0 mm 4 mps 734 mmHg 81%
    03:00 +7°C° 0 mm 3 mps 734 mmHg 83%
    04:00 +7°C° 0 mm 3 mps 734 mmHg 86%
    05:00 +5°C° 0 mm 3 mps 734 mmHg 88%
    06:00 +5°C° 0 mm 3 mps 734 mmHg 90%
    07:00 +7°C° 0 mm 3 mps 734 mmHg 85%
    08:00 +8°C° 0 mm 4 mps 734 mmHg 79%
    09:00 +10°C° 0 mm 4 mps 734 mmHg 74%
    10:00 +10°C° 0.2 mm 4 mps 733 mmHg 74%
    11:00 +9°C° 0.2 mm 5 mps 733 mmHg 75%
    12:00 +9°C° 0.2 mm 5 mps 733 mmHg 75%
    13:00 +11°C° 0.1 mm 4 mps 733 mmHg 73%
    14:00 +11°C° 0.1 mm 4 mps 732 mmHg 71%
    15:00 +12°C° 0.1 mm 4 mps 732 mmHg 69%
    16:00 +11°C° 0.4 mm 4 mps 732 mmHg 73%
    17:00 +10°C° 0.4 mm 3 mps 732 mmHg 77%
    18:00 +10°C° 0.4 mm 3 mps 731 mmHg 82%
    19:00 +8°C° 0.1 mm 4 mps 732 mmHg 85%
    20:00 +7°C° 0.1 mm 5 mps 732 mmHg 88%
    21:00 +5°C° 0.1 mm 6 mps 732 mmHg 91%
    22:00 +5°C° 0 mm 6 mps 732 mmHg 90%
    23:00 +5°C° 0 mm 6 mps 733 mmHg 90%

    19 September, Thursday

    Time Temperature Precipitation Wind Pressure Humidity
    00:00 +5°C° 0 mm 6 mps 733 mmHg 90%
    01:00 +5°C° 0 mm 6 mps 733 mmHg 91%
    02:00 +6°C° 0 mm 5 mps 734 mmHg 92%
    03:00 +5°C° 0 mm 5 mps 735 mmHg 93%
    04:00 +5°C° 0 mm 5 mps 735 mmHg 93%
    05:00 +5°C° 0 mm 5 mps 736 mmHg 92%
    06:00 +5°C° 0 mm 5 mps 737 mmHg 92%
    07:00 +5°C° 0 mm 5 mps 737 mmHg 90%
    08:00 +6°C° 0 mm 5 mps 738 mmHg 88%
    09:00 +6°C° 0 mm 5 mps 739 mmHg 86%
    10:00 +7°C° 0 mm 5 mps 739 mmHg 84%
    11:00 +7°C° 0 mm 5 mps 740 mmHg 82%
    12:00 +7°C° 0 mm 5 mps 740 mmHg 80%
    13:00 +8°C° 0.1 mm 5 mps 740 mmHg 75%
    14:00 +8°C° 0.1 mm 5 mps 741 mmHg 71%
    15:00 +9°C° 0.1 mm 5 mps 741 mmHg 67%
    16:00 +8°C° 0 mm 4 mps 741 mmHg 69%
    17:00 +9°C° 0 mm 3 mps 741 mmHg 71%
    18:00 +8°C° 0 mm 2 mps 742 mmHg 73%
    19:00 +8°C° 0 mm 2 mps 742 mmHg 75%
    20:00 +7°C° 0 mm 2 mps 742 mmHg 77%
    21:00 +8°C° 0 mm 1 mps 743 mmHg 79%
    22:00 +7°C° 0 mm 1 mps 743 mmHg 80%
    23:00 +6°C° 0 mm 2 mps 743 mmHg 81%

    20 September, Friday

    Time Temperature Precipitation Wind Pressure Humidity
    00:00 +5°C° 0 mm 2 mps 743 mmHg 82%
    01:00 +5°C° 0 mm 2 mps 743 mmHg 82%
    02:00 +5°C° 0 mm 2 mps 743 mmHg 82%
    03:00 +4°C° 0 mm 2 mps 743 mmHg 82%
    04:00 +4°C° 0 mm 2 mps 743 mmHg 82%
    05:00 +3°C° 0 mm 2 mps 743 mmHg 82%
    06:00 +3°C° 0 mm 2 mps 743 mmHg 82%
    07:00 +4°C° 0 mm 2 mps 744 mmHg 77%
    08:00 +5°C° 0 mm 2 mps 744 mmHg 71%
    09:00 +6°C° 0 mm 2 mps 744 mmHg 65%
    10:00 +7°C° 0 mm 2 mps 744 mmHg 59%
    11:00 +8°C° 0 mm 2 mps 744 mmHg 54%
    12:00 +9°C° 0 mm 2 mps 745 mmHg 48%
    13:00 +9°C° 0 mm 2 mps 745 mmHg 48%
    14:00 +10°C° 0 mm 2 mps 744 mmHg 48%
    15:00 +10°C° 0 mm 2 mps 744 mmHg 48%
    16:00 +9°C° 0.2 mm 2 mps 744 mmHg 55%
    17:00 +8°C° 0.2 mm 2 mps 744 mmHg 63%
    18:00 +7°C° 0.2 mm 2 mps 744 mmHg 70%
    19:00 +7°C° 0.1 mm 2 mps 745 mmHg 74%
    20:00 +6°C° 0.1 mm 2 mps 745 mmHg 78%
    21:00 +5°C° 0.1 mm 2 mps 745 mmHg 82%
    22:00 +4°C° 0 mm 2 mps 745 mmHg 82%
    23:00 +4°C° 0 mm 2 mps 745 mmHg 82%

    21 September, Saturday

    Time Temperature Precipitation Wind Pressure Humidity
    00:00 +3°C° 0 mm 2 mps 745 mmHg 83%
    01:00 +3°C° 0 mm 2 mps 745 mmHg 85%
    02:00 +2°C° 0 mm 2 mps 745 mmHg 86%
    03:00 +2°C° 0 mm 2 mps 746 mmHg 88%
    04:00 +1°C° 0 mm 2 mps 746 mmHg 89%
    05:00 +1°C° 0 mm 2 mps 746 mmHg 90%
    06:00 0°C° 0 mm 3 mps 746 mmHg 92%
    07:00 +1°C° 0 mm 3 mps 746 mmHg 85%
    08:00 +2°C° 0 mm 3 mps 747 mmHg 78%
    09:00 +3°C° 0 mm 3 mps 747 mmHg 72%
    10:00 +4°C° 0 mm 4 mps 747 mmHg 64%
    11:00 +6°C° 0 mm 4 mps 747 mmHg 56%
    12:00 +7°C° 0 mm 4 mps 748 mmHg 49%
    13:00 +7°C° 0 mm 4 mps 747 mmHg 48%
    14:00 +8°C° 0 mm 4 mps 747 mmHg 46%
    15:00 +8°C° 0 mm 4 mps 747 mmHg 45%
    16:00 +8°C° 0 mm 3 mps 747 mmHg 52%
    17:00 +7°C° 0 mm 3 mps 747 mmHg 58%
    18:00 +6°C° 0 mm 2 mps 748 mmHg 64%
    19:00 +5°C° 0 mm 2 mps 748 mmHg 67%
    20:00 +3°C° 0 mm 3 mps 748 mmHg 71%
    21:00 +3°C° 0 mm 3 mps 749 mmHg 74%
    22:00 +2°C° 0 mm 3 mps 749 mmHg 75%
    23:00 +2°C° 0 mm 3 mps 749 mmHg 75%
    Show more